Location: Nashville
(36.1660°N, 86.7840°W)
Time: 17:55:38
(UTC-06:00)

BlueWalker 3 - Pass Details

Date: 09 December 2022
Orbit: 499 x 517 km, 53.2° (Epoch: 31 January)

Event Time Altitude Azimuth Distance (km) Brightness Sun altitude
Rises 17:30:40 0° 323° (NW) 2,623 5.8 -11.5°
Reaches altitude 10° 17:33:15 10° 339° (NNW) 1,730 4.7 -12.0°
Enters shadow 17:37:24 20° 55° (NE) 1,228 3.3 -12.8°
Exits shadow 18:07:58 -56° 128° (SE) 11,184 8.7 -18.7°
